When you browse on this site, cookies collect data to enhance your experience and personalize the content and advertising you see.
Visit our Privacy Policy to learn more. By continuing to use the site, you agree to this use of cookies and data.
  • En España
  • Lista de países
  • Para 7 días
  • Temperatura del agua
  • Mapa Satelital
  • El tiempo en el mapa
  • Informadores
  • user-avatar
    Iniciar sesión

    Tiempo cada hora San Luis

    Hoy, 13 Diciembre, Jueves

    Tiempo Temperatura Precipitaciones Viento Presión Humedad
    00:00 +26°C° 0.1 mm 7 mps 695 mmHg 57%
    01:00 +24°C° 0.1 mm 7 mps 694 mmHg 60%
    02:00 +24°C° 0.1 mm 7 mps 694 mmHg 62%
    03:00 +24°C° 0 mm 7 mps 693 mmHg 66%
    04:00 +23°C° 0 mm 7 mps 693 mmHg 69%
    05:00 +23°C° 0 mm 6 mps 693 mmHg 73%
    06:00 +24°C° 0.3 mm 7 mps 693 mmHg 69%
    07:00 +27°C° 0.3 mm 7 mps 693 mmHg 65%
    08:00 +28°C° 0.3 mm 7 mps 693 mmHg 60%
    09:00 +29°C° 0.4 mm 7 mps 692 mmHg 57%
    10:00 +30°C° 0.4 mm 7 mps 692 mmHg 53%
    11:00 +32°C° 0.4 mm 8 mps 692 mmHg 50%
    12:00 +33°C° 0 mm 7 mps 691 mmHg 45%
    13:00 +34°C° 0 mm 6 mps 691 mmHg 40%
    14:00 +35°C° 0 mm 5 mps 691 mmHg 36%
    15:00 +36°C° 0 mm 4 mps 690 mmHg 33%
    16:00 +36°C° 0 mm 3 mps 690 mmHg 31%
    17:00 +36°C° 0 mm 3 mps 689 mmHg 28%
    18:00 +34°C° 1 mm 3 mps 689 mmHg 37%
    19:00 +30°C° 1 mm 3 mps 689 mmHg 46%
    20:00 +28°C° 1 mm 4 mps 689 mmHg 54%
    21:00 +27°C° 1.6 mm 4 mps 690 mmHg 59%
    22:00 +26°C° 1.6 mm 4 mps 691 mmHg 64%
    23:00 +25°C° 1.6 mm 4 mps 692 mmHg 69%

    Mañana, 14 Diciembre, Viernes

    Tiempo Temperatura Precipitaciones Viento Presión Humedad
    00:00 +24°C° 0.4 mm 6 mps 692 mmHg 69%
    01:00 +23°C° 0.4 mm 7 mps 692 mmHg 70%
    02:00 +23°C° 0.4 mm 9 mps 693 mmHg 71%
    03:00 +22°C° 0 mm 9 mps 693 mmHg 65%
    04:00 +21°C° 0 mm 9 mps 694 mmHg 59%
    05:00 +19°C° 0 mm 9 mps 695 mmHg 53%
    06:00 +19°C° 0 mm 9 mps 696 mmHg 45%
    07:00 +19°C° 0 mm 10 mps 697 mmHg 36%
    08:00 +21°C° 0 mm 10 mps 698 mmHg 28%
    09:00 +22°C° 0 mm 9 mps 698 mmHg 26%
    10:00 +24°C° 0 mm 9 mps 699 mmHg 24%
    11:00 +26°C° 0 mm 9 mps 699 mmHg 22%
    12:00 +27°C° 0 mm 8 mps 699 mmHg 22%
    13:00 +28°C° 0 mm 7 mps 699 mmHg 21%
    14:00 +29°C° 0 mm 7 mps 699 mmHg 21%
    15:00 +28°C° 0 mm 7 mps 699 mmHg 21%
    16:00 +28°C° 0 mm 7 mps 698 mmHg 22%
    17:00 +28°C° 0 mm 7 mps 698 mmHg 22%
    18:00 +26°C° 0 mm 7 mps 699 mmHg 25%
    19:00 +24°C° 0 mm 6 mps 699 mmHg 28%
    20:00 +22°C° 0 mm 6 mps 699 mmHg 31%
    21:00 +21°C° 0 mm 6 mps 700 mmHg 32%
    22:00 +20°C° 0 mm 5 mps 700 mmHg 34%
    23:00 +19°C° 0 mm 5 mps 701 mmHg 36%

    Pasado mañana, 15 Diciembre, Sábado

    Tiempo Temperatura Precipitaciones Viento Presión Humedad
    00:00 +19°C° 0 mm 5 mps 700 mmHg 35%
    01:00 +19°C° 0 mm 5 mps 700 mmHg 35%
    02:00 +17°C° 0 mm 5 mps 700 mmHg 35%
    03:00 +18°C° 0 mm 4 mps 700 mmHg 34%
    04:00 +18°C° 0 mm 4 mps 700 mmHg 32%
    05:00 +18°C° 0 mm 4 mps 699 mmHg 31%
    06:00 +20°C° 0 mm 5 mps 700 mmHg 27%
    07:00 +23°C° 0 mm 5 mps 701 mmHg 23%
    08:00 +26°C° 0 mm 6 mps 702 mmHg 19%
    09:00 +28°C° 0 mm 6 mps 702 mmHg 18%
    10:00 +29°C° 0 mm 6 mps 702 mmHg 16%
    11:00 +32°C° 0 mm 6 mps 702 mmHg 14%
    12:00 +33°C° 0 mm 6 mps 701 mmHg 15%
    13:00 +34°C° 0 mm 6 mps 700 mmHg 15%
    14:00 +34°C° 0 mm 6 mps 699 mmHg 16%
    15:00 +34°C° 0 mm 6 mps 699 mmHg 16%
    16:00 +34°C° 0 mm 6 mps 698 mmHg 17%
    17:00 +34°C° 0 mm 6 mps 697 mmHg 17%
    18:00 +32°C° 0 mm 5 mps 697 mmHg 19%
    19:00 +29°C° 0 mm 5 mps 697 mmHg 22%
    20:00 +27°C° 0 mm 5 mps 697 mmHg 24%
    21:00 +27°C° 0 mm 5 mps 697 mmHg 24%
    22:00 +26°C° 0 mm 6 mps 697 mmHg 23%
    23:00 +26°C° 0 mm 7 mps 697 mmHg 23%

    16 Diciembre, Domingo

    Tiempo Temperatura Precipitaciones Viento Presión Humedad
    00:00 +24°C° 0 mm 7 mps 697 mmHg 25%
    01:00 +24°C° 0 mm 8 mps 696 mmHg 27%
    02:00 +23°C° 0 mm 8 mps 696 mmHg 29%
    03:00 +23°C° 0 mm 8 mps 696 mmHg 35%
    04:00 +22°C° 0 mm 8 mps 696 mmHg 40%
    05:00 +22°C° 0 mm 8 mps 696 mmHg 46%
    06:00 +23°C° 0 mm 8 mps 696 mmHg 46%
    07:00 +26°C° 0 mm 8 mps 697 mmHg 46%
    08:00 +28°C° 0 mm 8 mps 697 mmHg 46%
    09:00 +29°C° 0 mm 7 mps 697 mmHg 42%
    10:00 +32°C° 0 mm 6 mps 697 mmHg 38%
    11:00 +33°C° 0 mm 5 mps 697 mmHg 34%
    12:00 +34°C° 0.2 mm 4 mps 697 mmHg 32%
    13:00 +35°C° 0.2 mm 3 mps 696 mmHg 30%
    14:00 +36°C° 0.2 mm 3 mps 695 mmHg 28%
    15:00 +36°C° 0 mm 2 mps 695 mmHg 28%
    16:00 +36°C° 0 mm 2 mps 694 mmHg 27%
    17:00 +36°C° 0 mm 2 mps 694 mmHg 27%
    18:00 +34°C° 0.1 mm 2 mps 694 mmHg 30%
    19:00 +32°C° 0.1 mm 2 mps 694 mmHg 34%
    20:00 +30°C° 0.1 mm 3 mps 694 mmHg 37%
    21:00 +29°C° 0.2 mm 3 mps 694 mmHg 42%
    22:00 +29°C° 0.2 mm 4 mps 694 mmHg 47%
    23:00 +28°C° 0.2 mm 5 mps 695 mmHg 51%

    17 Diciembre, Lunes

    Tiempo Temperatura Precipitaciones Viento Presión Humedad
    00:00 +27°C° 0.4 mm 5 mps 695 mmHg 55%
    01:00 +27°C° 0.4 mm 6 mps 695 mmHg 60%
    02:00 +26°C° 0.4 mm 6 mps 695 mmHg 64%
    03:00 +23°C° 1.4 mm 7 mps 695 mmHg 69%
    04:00 +21°C° 1.4 mm 8 mps 696 mmHg 75%
    05:00 +18°C° 1.4 mm 8 mps 696 mmHg 80%
    06:00 +18°C° 0.4 mm 8 mps 697 mmHg 77%
    07:00 +20°C° 0.4 mm 8 mps 698 mmHg 74%
    08:00 +20°C° 0.4 mm 7 mps 699 mmHg 71%
    09:00 +21°C° 0.5 mm 7 mps 699 mmHg 68%
    10:00 +22°C° 0.5 mm 7 mps 700 mmHg 65%
    11:00 +23°C° 0.5 mm 7 mps 700 mmHg 61%
    12:00 +24°C° 0.1 mm 7 mps 700 mmHg 59%
    13:00 +26°C° 0.1 mm 8 mps 699 mmHg 56%
    14:00 +26°C° 0.1 mm 9 mps 699 mmHg 54%
    15:00 +26°C° 0.1 mm 9 mps 699 mmHg 54%
    16:00 +26°C° 0.1 mm 9 mps 699 mmHg 53%
    17:00 +26°C° 0.1 mm 9 mps 698 mmHg 53%
    18:00 +24°C° 0 mm 9 mps 699 mmHg 56%
    19:00 +23°C° 0 mm 9 mps 699 mmHg 58%
    20:00 +22°C° 0 mm 8 mps 699 mmHg 60%
    21:00 +22°C° 0 mm 8 mps 700 mmHg 63%
    22:00 +21°C° 0 mm 8 mps 700 mmHg 66%
    23:00 +21°C° 0 mm 8 mps 700 mmHg 68%

    18 Diciembre, Martes

    Tiempo Temperatura Precipitaciones Viento Presión Humedad
    00:00 +20°C° 0 mm 8 mps 700 mmHg 71%
    01:00 +18°C° 0 mm 7 mps 700 mmHg 75%
    02:00 +18°C° 0 mm 7 mps 699 mmHg 78%
    03:00 +18°C° 0 mm 7 mps 700 mmHg 78%
    04:00 +17°C° 0 mm 7 mps 700 mmHg 78%
    05:00 +17°C° 0 mm 8 mps 700 mmHg 78%
    06:00 +18°C° 0 mm 7 mps 700 mmHg 73%
    07:00 +20°C° 0 mm 7 mps 701 mmHg 69%
    08:00 +21°C° 0 mm 6 mps 701 mmHg 64%
    09:00 +23°C° 0.1 mm 6 mps 701 mmHg 57%
    10:00 +27°C° 0.1 mm 5 mps 701 mmHg 50%
    11:00 +29°C° 0.1 mm 5 mps 701 mmHg 43%
    12:00 +29°C° 0.4 mm 4 mps 700 mmHg 41%
    13:00 +30°C° 0.4 mm 4 mps 699 mmHg 39%
    14:00 +30°C° 0.4 mm 4 mps 699 mmHg 37%
    15:00 +30°C° 0 mm 4 mps 698 mmHg 38%
    16:00 +30°C° 0 mm 5 mps 698 mmHg 38%
    17:00 +30°C° 0 mm 6 mps 697 mmHg 38%
    18:00 +29°C° 0.1 mm 6 mps 697 mmHg 43%
    19:00 +27°C° 0.1 mm 7 mps 697 mmHg 48%
    20:00 +26°C° 0.1 mm 7 mps 697 mmHg 53%
    21:00 +26°C° 0.1 mm 6 mps 697 mmHg 54%
    22:00 +24°C° 0.1 mm 6 mps 697 mmHg 56%
    23:00 +25°C° 0.1 mm 5 mps 697 mmHg 58%
    Mostrar más